Location: Balsareny
(41.8670°N, 1.8830°E)
Time: 14:56:43
(UTC+01:00)

Envisat - Pass Details

Date: 03 December 2021
Orbit: 764 x 766 km, 98.2° (Epoch: 19 January)

Event Time Altitude Azimuth Distance (km) Brightness Sun altitude
Rises 07:09:21 0° 358° (N) 3,242 6.0 -9.8°
Reaches altitude 10° 07:12:11 10° 343° (NNW) 2,310 5.1 -9.3°
Maximum altitude 07:15:51 21° 296° (WNW) 1,693 4.2 -8.7°
Drops below altitude 10° 07:19:30 10° 250° (WSW) 2,299 5.0 -8.0°
Sets 07:22:19 0° 234° (SW) 3,220 5.9 -7.6°
